Weather in Rassyl'naya

Russia / Oryol Oblast     52°42′44″N   35°49′05″E
temp.,
°C
wind,
m/s
gust,
m/s
humid.,
%
clouds,
%
prec.,
mm/h
press.,
hPa
HPBL,
m
6 may, thu
thu600:00+9s51483100 0.0 1010319
03:00+11s61478100 0.1 1009438
06:00+10ssw71772100 0.0 1008682
09:00+12s71574100 0.0 10081540
12:00+12s91764100 0.3 10071298
15:00+10ssw91581100 0.9 1008996
18:00+9w51094100 3.3 1009650
21:00+7sw3595100 5.7 1011124
7 may, fri
fri700:00+7wsw3793100 0.1 1011170
03:00+5wnw3689100 0.1 1012106
06:00+5wsw3589100 0.0 1013102
09:00+10wsw35645 0.0 1015548
12:00+13sw454522 0.0 10141780
15:00+14ssw5747100 0.0 10142146
18:00+12s5963100 0.0 1013322
21:00+10sse5137099 0.0 1012327
8 may, sat
sat800:00+10sse61469100 0.1 1010564
03:00+9sse91788100 2.9 1007985
06:00+9s91793100 4.8 1005719
09:00+9s71596100 11.8 1004722
12:00+9w61094100 3.4 1004535
15:00+10wsw7118688 3.5 1006888
18:00+9wsw9118074 0.2 10081076
21:00+5wnw81587100 0.3 1012898
9 may, sun
sun900:00+5w6108163 0.0 1014721
03:00+2w512910 0.0 1016312
06:00+2w410910 0.0 1018318
09:00+7nw68715 0.0 1019848
12:00+10nw675697 0.1 10212052
15:00+11nnw6846100 0.1 10222459
18:00+11nnw47586 0.0 1023763
21:00+6nnw34680 0.0 102646
10 may, mon
mon1000:00+4nw34742 0.0 102851
03:00+3nnw347747 0.0 103060
06:00+3n237711 0.0 103143
09:00+10nne23615 0.0 1031407
12:00+13nne22485 0.0 10311389
15:00+14nne23475 0.0 10311574
18:00+14nne24605 0.0 1030620
21:00+8ene22710 0.0 103112